This is the latest recevied weather packets stored in our database for station/object KC0AFB. If no packets are shown the sender has not sent any weather packets the latest 10 day(s).
| Time | Temp. | Humidity | Pressure | Rain* | Wind** | Luminosity | Snow |
|---|---|---|---|---|---|---|---|
| 1778187392 | 16.11° C | 28% | 1009.5 hPa | 0 mm | - | 608 W/m² | - |
| 1778187089 | 16.11° C | 28% | 1009.6 hPa | 0 mm | - | 601 W/m² | - |
| 1778186785 | 16.11° C | 29% | 1009.7 hPa | 0 mm | - | 596 W/m² | - |
| 1778186483 | 16.67° C | 28% | 1009.7 hPa | 0 mm | - | 586 W/m² | - |
| 1778186181 | 16.11° C | 28% | 1009.9 hPa | 0 mm | - | 586 W/m² | - |
| 1778185878 | 15.56° C | 30% | 1009.8 hPa | 0 mm | - | 603 W/m² | - |
| 1778185574 | 16.11° C | 33% | 1010 hPa | 0 mm | - | 606 W/m² | - |
| 1778185270 | 16.11° C | 29% | 1010.1 hPa | 0 mm | - | 639 W/m² | - |
| 1778184965 | 15.56° C | 27% | 1010.3 hPa | 0 mm | - | 651 W/m² | - |
| 1778184662 | 15.56° C | 30% | 1010.2 hPa | 0 mm | - | 655 W/m² | - |
| 1778184357 | 15.56° C | 29% | 1010.1 hPa | 0 mm | - | 668 W/m² | - |
| 1778184054 | 15.56° C | 31% | 1009.9 hPa | 0 mm | - | 689 W/m² | - |
| 1778183752 | 15.56° C | 30% | 1010.1 hPa | 0 mm | - | 700 W/m² | - |
| 1778183449 | 15.56° C | 31% | 1010.2 hPa | 0 mm | - | 698 W/m² | - |
| 1778183145 | 15.56° C | 32% | 1010.3 hPa | 0 mm | - | 673 W/m² | - |
| 1778182841 | 15.56° C | 32% | 1010.4 hPa | 0 mm | - | 649 W/m² | - |
| 1778182538 | 15° C | 29% | 1010.1 hPa | 0 mm | - | 647 W/m² | - |
| 1778182235 | 15° C | 32% | 1010.4 hPa | 0 mm | - | 650 W/m² | - |
| 1778181931 | 15° C | 28% | 1010.5 hPa | 0 mm | - | 655 W/m² | - |
| 1778181628 | 15° C | 28% | 1010.3 hPa | 0 mm | - | 642 W/m² | - |
| 1778181323 | 15° C | 28% | 1010.2 hPa | 0 mm | - | 590 W/m² | - |
| 1778181021 | 15° C | 31% | 1010.1 hPa | 0 mm | - | 660 W/m² | - |
| 1778180718 | 15° C | 32% | 1010.3 hPa | 0 mm | - | 685 W/m² | - |
| 1778180417 | 15° C | 30% | 1010.5 hPa | 0 mm | - | 672 W/m² | - |
| 1778180115 | 15° C | 30% | 1010.5 hPa | 0 mm | - | 684 W/m² | - |
* Rain latest hour (hover to see other rain measurements)
** Current wind speed in m/s (hover to see current wind gust speed)